Time,TemperatureF,DewpointF,PressureIn,WindDirection,WindDirectionDegrees,WindSpeedMPH,WindSpeedGustMPH,Humidity,HourlyPrecipIn,Conditions,Clouds,dailyrainin,SolarRadiationWatts/m^2,SoftwareType,DateUTC
2013-06-30 00:44:00,55.0,53.0,29.84,NW,325,8.0,11.0,93,-99.99,,,-99.99,0.000000,,2013-06-30 07:44:00,
2013-06-30 00:53:00,55.0,53.0,29.84,NNW,331,8.0,12.0,93,-99.99,,,-99.99,0.000000,,2013-06-30 07:53:00,
2013-06-30 01:02:00,55.0,53.0,29.84,NNW,330,8.0,11.0,93,-99.99,,,-99.99,0.000000,,2013-06-30 08:02:00,
2013-06-30 01:11:00,55.0,53.0,29.84,NNW,335,8.0,11.0,93,-99.99,,,-99.99,0.000000,,2013-06-30 08:11:00,
2013-06-30 01:22:00,54.0,52.0,29.84,NNW,336,8.0,11.0,93,-99.99,,,-99.99,0.000000,,2013-06-30 08:22:00,
2013-06-30 01:33:00,54.0,52.0,29.84,NNW,329,8.0,11.0,93,-99.99,,,-99.99,0.000000,,2013-06-30 08:33:00,
2013-06-30 01:42:00,54.0,52.0,29.84,NW,325,8.0,11.0,93,-99.99,,,-99.99,0.000000,,2013-06-30 08:42:00,
2013-06-30 01:53:00,54.0,52.0,29.84,NW,324,9.0,12.0,93,-99.99,,,-99.99,0.000000,,2013-06-30 08:53:00,
2013-06-30 02:01:00,54.0,52.0,29.83,NW,324,9.0,12.0,93,-99.99,,,-99.99,0.000000,,2013-06-30 09:01:00,
2013-06-30 02:12:00,54.0,52.0,29.83,NNW,330,8.0,12.0,93,-99.99,,,-99.99,0.000000,,2013-06-30 09:12:00,
2013-06-30 02:23:00,54.0,52.0,29.83,NNW,328,9.0,13.0,93,-99.99,,,-99.99,0.000000,,2013-06-30 09:23:00,
2013-06-30 02:33:00,54.0,52.0,29.82,NNW,328,8.0,10.0,93,-99.99,,,-99.99,0.000000,,2013-06-30 09:33:00,
2013-06-30 02:43:00,54.0,52.0,29.82,NNW,330,8.0,11.0,93,-99.99,,,-99.99,0.000000,,2013-06-30 09:43:00,
2013-06-30 02:53:00,54.0,52.0,29.82,NW,326,8.0,10.0,93,-99.99,,,-99.99,0.000000,,2013-06-30 09:53:00,
2013-06-30 03:02:00,54.0,52.0,29.82,NW,325,8.0,10.0,94,-99.99,,,-99.99,0.000000,,2013-06-30 10:02:00,
2013-06-30 03:11:00,54.0,52.0,29.82,NW,325,8.0,11.0,94,-99.99,,,-99.99,0.000000,,2013-06-30 10:11:00,
2013-06-30 03:22:00,54.0,52.0,29.82,NW,326,7.0,9.0,93,-99.99,,,-99.99,0.000000,,2013-06-30 10:22:00,
2013-06-30 03:33:00,53.0,51.0,29.82,NW,324,6.0,8.0,93,-99.99,,,-99.99,0.000000,,2013-06-30 10:33:00,
2013-06-30 03:42:00,53.0,51.0,29.82,NW,322,7.0,10.0,94,-99.99,,,-99.99,0.000000,,2013-06-30 10:42:00,
2013-06-30 03:53:00,53.0,52.0,29.82,NW,322,6.0,9.0,94,-99.99,,,-99.99,0.000000,,2013-06-30 10:53:00,
2013-06-30 04:02:00,54.0,52.0,29.82,NW,322,7.0,10.0,94,-99.99,,,-99.99,0.000000,,2013-06-30 11:02:00,
2013-06-30 04:11:00,54.0,52.0,29.82,NW,323,8.0,11.0,94,-99.99,,,-99.99,0.000000,,2013-06-30 11:11:00,
2013-06-30 04:20:00,54.0,53.0,29.81,NW,325,8.0,11.0,94,-99.99,,,-99.99,0.000000,,2013-06-30 11:20:00,
2013-06-30 04:22:00,54.0,52.0,29.81,NW,321,8.0,12.0,94,-99.99,,,-99.99,0.000000,,2013-06-30 11:22:00,
2013-06-30 04:33:00,54.0,52.0,29.81,NW,326,7.0,10.0,94,-99.99,,,-99.99,0.000000,,2013-06-30 11:33:00,
2013-06-30 04:43:00,54.0,52.0,29.81,NW,322,7.0,11.0,94,-99.99,,,-99.99,0.000000,,2013-06-30 11:43:00,
2013-06-30 04:53:00,54.0,53.0,29.81,NW,322,9.0,13.0,94,-99.99,,,-99.99,0.000000,,2013-06-30 11:53:00,
2013-06-30 05:01:00,54.0,53.0,29.81,NW,325,8.0,11.0,94,-99.99,,,-99.99,0.000000,,2013-06-30 12:01:00,
2013-06-30 05:11:00,54.0,53.0,29.81,NW,325,8.0,11.0,94,-99.99,,,-99.99,0.000000,,2013-06-30 12:11:00,
2013-06-30 05:33:00,54.0,52.0,29.80,NW,320,9.0,13.0,94,-99.99,,,-99.99,0.000000,,2013-06-30 12:33:00,
2013-06-30 05:43:00,54.0,53.0,29.81,NNW,329,8.0,11.0,94,-99.99,,,-99.99,0.000000,,2013-06-30 12:43:00,
2013-06-30 05:52:00,54.0,53.0,29.81,NW,322,9.0,13.0,94,-99.99,,,-99.99,0.000000,,2013-06-30 12:52:00,
2013-06-30 06:02:00,53.0,52.0,29.81,NNW,330,8.0,11.0,94,-99.99,,,-99.99,0.000000,,2013-06-30 13:02:00,
2013-06-30 06:12:00,53.0,52.0,29.81,NW,325,10.0,12.0,95,-99.99,,,-99.99,0.000000,,2013-06-30 13:12:00,
2013-06-30 06:22:00,53.0,52.0,29.81,NW,324,8.0,11.0,95,-99.99,,,-99.99,0.000000,,2013-06-30 13:22:00,
2013-06-30 06:33:00,53.0,52.0,29.81,NW,324,10.0,13.0,95,-99.99,,,-99.99,3.000000,,2013-06-30 13:33:00,
2013-06-30 06:43:00,53.0,52.0,29.81,NW,325,9.0,13.0,95,-99.99,,,-99.99,4.000000,,2013-06-30 13:43:00,
2013-06-30 06:53:00,53.0,52.0,29.82,NNW,330,8.0,10.0,95,-99.99,,,-99.99,12.000000,,2013-06-30 13:53:00,
2013-06-30 07:02:00,53.0,52.0,29.82,NNW,331,9.0,12.0,95,-99.99,,,-99.99,24.000000,,2013-06-30 14:02:00,
2013-06-30 07:11:00,54.0,53.0,29.82,NNW,334,8.0,13.0,95,-99.99,,,-99.99,49.000000,,2013-06-30 14:11:00,
2013-06-30 07:20:00,55.0,53.0,29.82,NNW,339,9.0,12.0,93,-99.99,,,-99.99,163.000000,,2013-06-30 14:20:00,
2013-06-30 07:22:00,54.0,53.0,29.82,NNW,332,10.0,13.0,95,-99.99,,,-99.99,77.000000,,2013-06-30 14:22:00,
2013-06-30 07:33:00,54.0,53.0,29.82,NNW,336,10.0,13.0,94,-99.99,,,-99.99,110.000000,,2013-06-30 14:33:00,
2013-06-30 07:44:00,55.0,53.0,29.82,NNW,338,10.0,15.0,94,-99.99,,,-99.99,128.000000,,2013-06-30 14:44:00,
2013-06-30 07:52:00,55.0,53.0,29.82,NNW,334,9.0,13.0,94,-99.99,,,-99.99,151.000000,,2013-06-30 14:52:00,
2013-06-30 08:02:00,55.0,53.0,29.82,NNW,339,9.0,12.0,93,-99.99,,,-99.99,163.000000,,2013-06-30 15:02:00,
2013-06-30 08:12:00,55.0,53.0,29.82,NNW,339,9.0,12.0,93,-99.99,,,-99.99,163.000000,,2013-06-30 15:12:00,
2013-06-30 08:20:00,57.0,54.0,29.84,NW,325,9.0,14.0,90,-99.99,,,-99.99,359.000000,,2013-06-30 15:20:00,
2013-06-30 08:34:00,56.0,54.0,29.83,NNW,337,9.0,13.0,92,-99.99,,,-99.99,259.000000,,2013-06-30 15:34:00,
2013-06-30 08:44:00,56.0,54.0,29.83,NNW,331,9.0,14.0,91,-99.99,,,-99.99,298.000000,,2013-06-30 15:44:00,
2013-06-30 08:53:00,57.0,54.0,29.84,NNW,330,9.0,14.0,90,-99.99,,,-99.99,261.000000,,2013-06-30 15:53:00,
2013-06-30 09:01:00,57.0,54.0,29.84,NW,325,9.0,14.0,90,-99.99,,,-99.99,359.000000,,2013-06-30 16:01:00,
2013-06-30 09:10:00,58.0,54.0,29.84,NW,326,12.0,18.0,87,-99.99,,,-99.99,342.000000,,2013-06-30 16:10:00,
2013-06-30 09:11:00,57.0,54.0,29.84,NW,325,9.0,14.0,90,-99.99,,,-99.99,359.000000,,2013-06-30 16:11:00,
2013-06-30 09:44:00,58.0,54.0,29.84,NNW,329,11.0,17.0,87,-99.99,,,-99.99,461.000000,,2013-06-30 16:44:00,
2013-06-30 09:53:00,58.0,54.0,29.84,NW,326,12.0,18.0,87,-99.99,,,-99.99,342.000000,,2013-06-30 16:53:00,
2013-06-30 10:01:00,58.0,54.0,29.84,NW,326,12.0,18.0,87,-99.99,,,-99.99,342.000000,,2013-06-30 17:01:00,
2013-06-30 10:20:00,57.0,54.0,29.84,NW,317,12.0,17.0,89,-99.99,,,-99.99,500.000000,,2013-06-30 17:20:00,
2013-06-30 10:23:00,57.0,54.0,29.84,NW,320,14.0,17.0,88,-99.99,,,-99.99,410.000000,,2013-06-30 17:23:00,
2013-06-30 10:33:00,57.0,54.0,29.84,NW,319,14.0,18.0,89,-99.99,,,-99.99,414.000000,,2013-06-30 17:33:00,
2013-06-30 10:43:00,57.0,54.0,29.84,NW,325,13.0,17.0,88,-99.99,,,-99.99,509.000000,,2013-06-30 17:43:00,
2013-06-30 10:52:00,57.0,54.0,29.84,NW,322,13.0,17.0,88,-99.99,,,-99.99,491.000000,,2013-06-30 17:52:00,
2013-06-30 11:01:00,57.0,54.0,29.84,NW,317,12.0,17.0,89,-99.99,,,-99.99,500.000000,,2013-06-30 18:01:00,
2013-06-30 11:12:00,57.0,54.0,29.84,NW,317,12.0,17.0,89,-99.99,,,-99.99,500.000000,,2013-06-30 18:12:00,
2013-06-30 11:34:00,58.0,55.0,29.85,NW,313,12.0,17.0,88,-99.99,,,-99.99,551.000000,,2013-06-30 18:34:00,
2013-06-30 11:43:00,58.0,55.0,29.85,NW,312,12.0,15.0,88,-99.99,,,-99.99,616.000000,,2013-06-30 18:43:00,
2013-06-30 11:53:00,58.0,54.0,29.85,NW,312,13.0,17.0,87,-99.99,,,-99.99,634.000000,,2013-06-30 18:53:00,
2013-06-30 12:01:00,58.0,54.0,29.85,NW,314,12.0,16.0,87,-99.99,,,-99.99,651.000000,,2013-06-30 19:01:00,
2013-06-30 12:11:00,59.0,55.0,29.85,NW,319,12.0,18.0,85,-99.99,,,-99.99,716.000000,,2013-06-30 19:11:00,
2013-06-30 12:33:00,60.0,55.0,29.85,NNW,328,12.0,16.0,84,-99.99,,,-99.99,710.000000,,2013-06-30 19:33:00,
2013-06-30 12:43:00,59.0,54.0,29.85,NW,323,12.0,16.0,84,-99.99,,,-99.99,703.000000,,2013-06-30 19:43:00,
2013-06-30 12:53:00,60.0,55.0,29.85,NW,320,12.0,17.0,84,-99.99,,,-99.99,688.000000,,2013-06-30 19:53:00,
2013-06-30 13:01:00,60.0,55.0,29.85,NW,312,11.0,16.0,84,-99.99,,,-99.99,679.000000,,2013-06-30 20:01:00,
2013-06-30 13:11:00,60.0,55.0,29.85,NW,315,11.0,16.0,83,-99.99,,,-99.99,756.000000,,2013-06-30 20:11:00,
2013-06-30 13:22:00,60.0,55.0,29.85,NW,310,12.0,17.0,83,-99.99,,,-99.99,687.000000,,2013-06-30 20:22:00,
2013-06-30 13:34:00,59.0,55.0,29.85,NW,315,14.0,18.0,85,-99.99,,,-99.99,572.000000,,2013-06-30 20:34:00,
2013-06-30 13:42:00,58.0,54.0,29.85,NW,319,12.0,16.0,87,-99.99,,,-99.99,545.000000,,2013-06-30 20:42:00,
2013-06-30 13:52:00,58.0,54.0,29.85,NW,320,12.0,17.0,88,-99.99,,,-99.99,586.000000,,2013-06-30 20:52:00,
2013-06-30 14:01:00,58.0,54.0,29.85,NW,321,12.0,17.0,88,-99.99,,,-99.99,597.000000,,2013-06-30 21:01:00,
2013-06-30 14:11:00,59.0,55.0,29.85,NW,322,12.0,17.0,86,-99.99,,,-99.99,598.000000,,2013-06-30 21:11:00,
2013-06-30 14:33:00,58.0,54.0,29.84,NW,319,13.0,17.0,87,-99.99,,,-99.99,623.000000,,2013-06-30 21:33:00,
2013-06-30 14:42:00,58.0,54.0,29.84,NW,320,13.0,17.0,87,-99.99,,,-99.99,624.000000,,2013-06-30 21:42:00,
2013-06-30 14:53:00,59.0,55.0,29.83,NW,320,12.0,16.0,86,-99.99,,,-99.99,639.000000,,2013-06-30 21:53:00,
2013-06-30 15:01:00,59.0,55.0,29.83,NW,322,12.0,17.0,85,-99.99,,,-99.99,637.000000,,2013-06-30 22:01:00,
2013-06-30 15:11:00,59.0,55.0,29.83,NW,322,12.0,17.0,85,-99.99,,,-99.99,637.000000,,2013-06-30 22:11:00,
2013-06-30 15:34:00,60.0,55.0,29.83,NW,322,12.0,17.0,84,-99.99,,,-99.99,692.000000,,2013-06-30 22:34:00,
2013-06-30 15:43:00,59.0,55.0,29.82,NW,324,11.0,16.0,85,-99.99,,,-99.99,644.000000,,2013-06-30 22:43:00,
2013-06-30 15:52:00,59.0,55.0,29.82,NW,322,12.0,16.0,85,-99.99,,,-99.99,663.000000,,2013-06-30 22:52:00,
2013-06-30 16:01:00,60.0,55.0,29.82,NW,326,11.0,14.0,84,-99.99,,,-99.99,779.000000,,2013-06-30 23:01:00,
2013-06-30 16:11:00,60.0,55.0,29.82,NW,323,10.0,14.0,82,-99.99,,,-99.99,763.000000,,2013-06-30 23:11:00,
2013-06-30 16:30:00,61.0,55.0,29.81,NW,310,11.0,15.0,79,-99.99,,,-99.99,644.000000,,2013-06-30 23:30:00,
2013-06-30 16:33:00,61.0,55.0,29.82,NW,322,10.0,14.0,80,-99.99,,,-99.99,721.000000,,2013-06-30 23:33:00,
2013-06-30 16:43:00,61.0,55.0,29.81,NW,315,11.0,16.0,80,-99.99,,,-99.99,704.000000,,2013-06-30 23:43:00,
2013-06-30 16:53:00,61.0,55.0,29.81,NW,316,10.0,15.0,80,-99.99,,,-99.99,684.000000,,2013-06-30 23:53:00,
2013-06-30 17:01:00,61.0,55.0,29.81,NW,315,10.0,14.0,79,-99.99,,,-99.99,665.000000,,2013-07-01 00:01:00,
2013-06-30 17:11:00,61.0,55.0,29.81,NW,310,11.0,15.0,79,-99.99,,,-99.99,644.000000,,2013-07-01 00:11:00,
2013-06-30 17:22:00,61.0,55.0,29.81,NW,310,11.0,15.0,79,-99.99,,,-99.99,644.000000,,2013-07-01 00:22:00,
2013-06-30 17:42:00,61.0,54.0,29.80,NW,309,12.0,15.0,79,-99.99,,,-99.99,565.000000,,2013-07-01 00:42:00,
2013-06-30 17:50:00,60.0,54.0,29.79,NW,309,12.0,16.0,80,-99.99,,,-99.99,430.000000,,2013-07-01 00:50:00,
2013-06-30 17:52:00,61.0,55.0,29.80,WNW,303,11.0,15.0,79,-99.99,,,-99.99,544.000000,,2013-07-01 00:52:00,
2013-06-30 18:01:00,62.0,55.0,29.79,NW,317,10.0,15.0,79,-99.99,,,-99.99,519.000000,,2013-07-01 01:01:00,
2013-06-30 18:11:00,61.0,55.0,29.79,NW,313,12.0,16.0,80,-99.99,,,-99.99,494.000000,,2013-07-01 01:11:00,
2013-06-30 18:22:00,61.0,55.0,29.79,NW,307,12.0,18.0,80,-99.99,,,-99.99,463.000000,,2013-07-01 01:22:00,
2013-06-30 18:33:00,60.0,54.0,29.79,NW,309,12.0,16.0,80,-99.99,,,-99.99,430.000000,,2013-07-01 01:33:00,
2013-06-30 18:42:00,60.0,54.0,29.79,NW,309,12.0,16.0,80,-99.99,,,-99.99,430.000000,,2013-07-01 01:42:00,
2013-06-30 19:00:00,60.0,55.0,29.79,NW,322,10.0,18.0,83,-99.99,,,-99.99,233.000000,,2013-07-01 02:00:00,
2013-06-30 19:22:00,60.0,54.0,29.79,NW,313,10.0,14.0,81,-99.99,,,-99.99,286.000000,,2013-07-01 02:22:00,
2013-06-30 19:30:00,58.0,53.0,29.78,NW,324,9.0,13.0,84,-99.99,,,-99.99,149.000000,,2013-07-01 02:30:00,
2013-06-30 19:33:00,60.0,55.0,29.79,NW,320,10.0,14.0,82,-99.99,,,-99.99,260.000000,,2013-07-01 02:33:00,
2013-06-30 19:43:00,60.0,55.0,29.79,NW,322,10.0,18.0,83,-99.99,,,-99.99,233.000000,,2013-07-01 02:43:00,
2013-06-30 19:53:00,60.0,55.0,29.79,NW,322,10.0,18.0,83,-99.99,,,-99.99,233.000000,,2013-07-01 02:53:00,
2013-06-30 20:11:00,58.0,53.0,29.78,NW,324,9.0,13.0,84,-99.99,,,-99.99,149.000000,,2013-07-01 03:11:00,
2013-06-30 20:23:00,58.0,53.0,29.78,NW,324,9.0,13.0,84,-99.99,,,-99.99,149.000000,,2013-07-01 03:23:00,
2013-06-30 20:50:00,56.0,53.0,29.78,NW,323,9.0,14.0,90,-99.99,,,-99.99,3.000000,,2013-07-01 03:50:00,
2013-06-30 21:32:00,56.0,53.0,29.78,NW,323,9.0,14.0,90,-99.99,,,-99.99,3.000000,,2013-07-01 04:32:00,
2013-06-30 21:42:00,56.0,53.0,29.78,NW,323,9.0,14.0,90,-99.99,,,-99.99,3.000000,,2013-07-01 04:42:00,
2013-06-30 22:01:00,55.0,53.0,29.78,NNW,329,8.0,13.0,92,-99.99,,,-99.99,0.000000,,2013-07-01 05:01:00,
2013-06-30 22:11:00,55.0,53.0,29.79,NNW,331,8.0,14.0,92,-99.99,,,-99.99,0.000000,,2013-07-01 05:11:00,
2013-06-30 22:22:00,55.0,53.0,29.79,NNW,328,9.0,14.0,92,-99.99,,,-99.99,0.000000,,2013-07-01 05:22:00,
2013-06-30 22:32:00,55.0,53.0,29.79,NW,321,11.0,19.0,92,-99.99,,,-99.99,0.000000,,2013-07-01 05:32:00,
2013-06-30 22:42:00,55.0,53.0,29.79,NW,322,12.0,16.0,92,-99.99,,,-99.99,0.000000,,2013-07-01 05:42:00,
2013-06-30 22:52:00,55.0,53.0,29.80,NW,319,12.0,19.0,93,-99.99,,,-99.99,0.000000,,2013-07-01 05:52:00,
2013-06-30 23:02:00,56.0,54.0,29.80,NW,314,14.0,19.0,93,-99.99,,,-99.99,0.000000,,2013-07-01 06:02:00,
2013-06-30 23:12:00,55.0,53.0,29.80,NW,317,15.0,20.0,94,-99.99,,,-99.99,0.000000,,2013-07-01 06:12:00,
2013-06-30 23:24:00,55.0,54.0,29.81,NW,321,16.0,20.0,95,-99.99,,,-99.99,0.000000,,2013-07-01 06:24:00,
2013-06-30 23:33:00,55.0,54.0,29.81,NW,323,15.0,20.0,95,-99.99,,,-99.99,0.000000,,2013-07-01 06:33:00,
2013-06-30 23:43:00,54.0,53.0,29.81,NNW,327,15.0,20.0,96,-99.99,,,-99.99,0.000000,,2013-07-01 06:43:00,
2013-06-30 23:53:00,54.0,53.0,29.81,NNW,328,14.0,21.0,96,-99.99,,,-99.99,0.000000,,2013-07-01 06:53:00,